Simultaneous Nadir Overpasses (SNOs) Predictions

Prediction of SNOs near US between NOAA-19 and NPP Satellite Orbit:

Table of predicted SNOs near US for the next 10.0 days since TLE Epoch: 5/25/2012
<
Index Date (NOAA-19) Time (NOAA-19) NOAA-19 Lat,Lon Date (NPP) Time (NPP) NPP Lat,Lon Distance(km) Time Diff (sec)
1 05/27/2012 17:38:49 41.56, -69.51 05/27/2012 17:41:15 41.02, -72.05 220.53 146
2 05/27/2012 19:21:29 43.57, -95.76 05/27/2012 19:23:20 43.06, -98.14 200.93 111
3 05/27/2012 21:04:10 45.63,-122.06 05/27/2012 21:05:26 45.16,-124.29 181.65 76
4 05/28/2012 07:42:29 42.04, -84.48 05/28/2012 07:40:11 42.32, -86.18 143.37 138
5 05/28/2012 09:25:10 39.97,-110.72 05/28/2012 09:22:16 40.28,-112.25 135.04 174
6 05/28/2012 19:12:34 49.97, -95.68 05/28/2012 19:06:16 49.90, -96.11 31.96 378
7 05/28/2012 20:54:39
